Location: Newark
(43.6583°N, 1.6617°E)
Time: 12:59:56
(UTC+00:00)

Transit 4A - Pass Details

Date: 27 August 2019
Orbit: 865 x 979 km, 66.8° (Epoch: 22 September)

Event Time Altitude Azimuth Distance (km) Brightness Sun altitude
Rises 01:42:46 0° 329° (NNW) 3,632 11.3 -30.8°
Reaches altitude 10° 01:45:22 10° 330° (NNW) 2,668 10.6 -30.6°
Enters shadow 01:51:29 82° 38° (NE) 937 7.8 -30.0°
